,,Stat6,,Stat2,,Stat8,,Stat9,,Stat10,,Wind1,,Wind1,
time,status,PA1M_AVG,status,PR1M_SUM,status,RH1M_AVG,status,SR1M_AVG,status,TA1M_AVG,status,W1dAve1m,status,W1sAve1m,
2007-12-31, 00:00:00,VALID,915.846,VALID,0,VALID,96.9014,VALID,0.0339617,VALID,17.2845,VALID,130,VALID,1.6806,
2007-12-31, 00:01:00,VALID,915.838,VALID,0,VALID,97.1302,VALID,0.0169808,VALID,17.2622,VALID,136,VALID,1.86185,
2007-12-31, 00:02:00,VALID,915.828,VALID,0,VALID,97.073,VALID,0.0339617,VALID,17.2328,VALID,138,VALID,1.42578,
2007-12-31, 00:03:00,VALID,915.831,VALID,0,VALID,97.232,VALID,0,VALID,17.1972,VALID,139,VALID,1.44141,
2007-12-31, 00:04:00,VALID,915.834,VALID,0,VALID,97.3808,VALID,0,VALID,17.1807,VALID,147,VALID,1.45273,
2007-12-31, 00:05:00,VALID,915.847,VALID,0,VALID,97.5232,VALID,0,VALID,17.1643,VALID,146,VALID,1.31995,
2007-12-31, 00:06:00,VALID,915.855,VALID,0,VALID,97.5435,VALID,0.0339617,VALID,17.1838,VALID,138,VALID,1.55983,
2007-12-31, 00:07:00,VALID,915.867,VALID,0,VALID,97.4431,VALID,0.0339617,VALID,17.1937,VALID,132,VALID,1.75949,
2007-12-31, 00:08:00,VALID,915.853,VALID,0,VALID,97.251,VALID,0.0169808,VALID,17.2166,VALID,137,VALID,1.89082,
2007-12-31, 00:09:00,VALID,915.865,VALID,0,VALID,97.0934,VALID,0.0339617,VALID,17.2488,VALID,137,VALID,1.92801,
2007-12-31, 00:10:00,VALID,915.876,VALID,0,VALID,96.895,VALID,0,VALID,17.2977,VALID,137,VALID,1.5625,
2007-12-31, 00:11:00,VALID,915.891,VALID,0,VALID,96.7538,VALID,-0.0169808,VALID,17.3102,VALID,137,VALID,1.27925,
2007-12-31, 00:12:00,VALID,915.89,VALID,0,VALID,96.6419,VALID,0.0339617,VALID,17.3264,VALID,136,VALID,1.02288,
2007-12-31, 00:13:00,VALID,915.906,VALID,0,VALID,96.5224,VALID,0,VALID,17.353,VALID,120,VALID,1.02415,
2007-12-31, 00:14:00,VALID,915.877,VALID,0,VALID,96.3075,VALID,-0.0339617,VALID,17.3461,VALID,122,VALID,0.908736,
2007-12-31, 00:15:00,VALID,915.868,VALID,0,VALID,96.2414,VALID,0.0169808,VALID,17.3463,VALID,122,VALID,1.246,
2007-12-31, 00:16:00,VALID,915.895,VALID,0,VALID,96.1015,VALID,0,VALID,17.3627,VALID,143,VALID,0.942224,
2007-12-31, 00:17:00,VALID,915.9,VALID,0,VALID,96.0367,VALID,0,VALID,17.366,VALID,151,VALID,0.959872,
2007-12-31, 00:18:00,VALID,915.904,VALID,0,VALID,96.0341,VALID,0,VALID,17.372,VALID,159,VALID,0.886186,
2007-12-31, 00:19:00,VALID,915.901,VALID,0,VALID,96.0265,VALID,0,VALID,17.3886,VALID,144,VALID,0.931445,
2007-12-31, 00:20:00,VALID,915.887,VALID,0,VALID,95.9553,VALID,0.0169808,VALID,17.4079,VALID,135,VALID,1.12798,
2007-12-31, 00:21:00,VALID,915.871,VALID,0,VALID,95.6463,VALID,0.0169808,VALID,17.4535,VALID,114,VALID,1.43285,
2007-12-31, 00:22:00,VALID,915.863,VALID,0,VALID,95.2292,VALID,-0.0169808,VALID,17.4757,VALID,125,VALID,1.3367,
2007-12-31, 00:23:00,VALID,915.833,VALID,0,VALID,94.9901,VALID,0,VALID,17.4954,VALID,145,VALID,1.54031,
2007-12-31, 00:24:00,VALID,915.803,VALID,0,VALID,94.7765,VALID,0,VALID,17.4924,VALID,138,VALID,1.74665,
2007-12-31, 00:25:00,VALID,915.77,VALID,0,VALID,94.5285,VALID,0.0169808,VALID,17.4954,VALID,130,VALID,1.45751,
2007-12-31, 00:26:00,VALID,915.76,VALID,0,VALID,94.3556,VALID,0,VALID,17.4892,VALID,119,VALID,0.999467,
2007-12-31, 00:27:00,VALID,915.753,VALID,0,VALID,94.2373,VALID,-0.101885,VALID,17.4704,VALID,118,VALID,1.30283,
2007-12-31, 00:28:00,VALID,915.742,VALID,0,VALID,94.0034,VALID,-0.135847,VALID,17.4907,VALID,124,VALID,1.30934,
2007-12-31, 00:29:00,VALID,915.724,VALID,0,VALID,93.791,VALID,-0.101885,VALID,17.5035,VALID,128,VALID,1.48217,
2007-12-31, 00:30:00,VALID,915.719,VALID,0,VALID,93.6117,VALID,-0.101885,VALID,17.513,VALID,133,VALID,1.54287,
2007-12-31, 00:31:00,VALID,915.714,VALID,0,VALID,93.496,VALID,-0.101885,VALID,17.5488,VALID,140,VALID,1.54859,
2007-12-31, 00:32:00,VALID,915.698,VALID,0,VALID,93.3803,VALID,-0.118866,VALID,17.581,VALID,135,VALID,1.29635,
2007-12-31, 00:33:00,VALID,915.692,VALID,0,VALID,93.4311,VALID,-0.101885,VALID,17.5942,VALID,140,VALID,1.22749,
2007-12-31, 00:34:00,VALID,915.682,VALID,0,VALID,93.5087,VALID,-0.118866,VALID,17.5778,VALID,133,VALID,1.13938,
2007-12-31, 00:35:00,VALID,915.675,VALID,0,VALID,93.5812,VALID,-0.0849042,VALID,17.5197,VALID,127,VALID,1.20675,
2007-12-31, 00:36:00,VALID,915.669,VALID,0,VALID,93.744,VALID,-0.101885,VALID,17.4682,VALID,115,VALID,1.19844,
2007-12-31, 00:37:00,VALID,915.654,VALID,0,VALID,94.1064,VALID,-0.101885,VALID,17.4092,VALID,111,VALID,1.48103,
2007-12-31, 00:38:00,VALID,915.647,VALID,0,VALID,94.5095,VALID,-0.118866,VALID,17.3571,VALID,117,VALID,1.53343,
2007-12-31, 00:39:00,VALID,915.634,VALID,0,VALID,94.7422,VALID,-0.101885,VALID,17.299,VALID,122,VALID,1.38091,
2007-12-31, 00:40:00,VALID,915.646,VALID,0,VALID,95.1516,VALID,-0.118866,VALID,17.2378,VALID,130,VALID,1.34084,
2007-12-31, 00:41:00,VALID,915.627,VALID,0,VALID,95.5636,VALID,-0.101885,VALID,17.1957,VALID,135,VALID,1.48129,
2007-12-31, 00:42:00,VALID,915.612,VALID,0,VALID,95.8472,VALID,-0.0679233,VALID,17.1658,VALID,133,VALID,1.67387,
2007-12-31, 00:43:00,VALID,915.597,VALID,0,VALID,95.954,VALID,-0.0169808,VALID,17.1228,VALID,126,VALID,1.46373,
2007-12-31, 00:44:00,VALID,915.604,VALID,0,VALID,96.099,VALID,-0.0169808,VALID,17.0967,VALID,125,VALID,1.4255,
2007-12-31, 00:45:00,VALID,915.608,VALID,0,VALID,96.1244,VALID,-0.0169808,VALID,17.0841,VALID,115,VALID,1.08097,
2007-12-31, 00:46:00,VALID,915.604,VALID,0,VALID,96.2567,VALID,-0.0169808,VALID,17.0677,VALID,113,VALID,1.20554,
2007-12-31, 00:47:00,VALID,915.584,VALID,0,VALID,96.4143,VALID,-0.0169808,VALID,17.0482,VALID,116,VALID,1.26456,
2007-12-31, 00:48:00,VALID,915.564,VALID,0,VALID,96.4258,VALID,0,VALID,17.0063,VALID,113,VALID,1.35118,
2007-12-31, 00:49:00,VALID,915.558,VALID,0,VALID,96.3622,VALID,0,VALID,16.9478,VALID,118,VALID,1.26762,
2007-12-31, 00:50:00,VALID,915.548,VALID,0,VALID,96.4156,VALID,0,VALID,16.9121,VALID,109,VALID,0.899609,
2007-12-31, 00:51:00,VALID,915.544,VALID,0,VALID,96.5911,VALID,-0.0169808,VALID,16.8764,VALID,114,VALID,1.34623,
2007-12-31, 00:52:00,VALID,915.509,VALID,0,VALID,96.839,VALID,0,VALID,16.8762,VALID,127,VALID,1.59702,
2007-12-31, 00:53:00,VALID,915.473,VALID,0,VALID,96.9598,VALID,0,VALID,16.8659,VALID,128,VALID,1.68005,
2007-12-31, 00:54:00,VALID,915.471,VALID,0,VALID,96.9433,VALID,0,VALID,16.8793,VALID,130,VALID,1.80549,
2007-12-31, 00:55:00,VALID,915.458,VALID,0,VALID,96.8263,VALID,-0.0169808,VALID,16.8959,VALID,138,VALID,1.90586,
2007-12-31, 00:56:00,VALID,915.445,VALID,0,VALID,96.6496,VALID,-0.0169808,VALID,16.9024,VALID,143,VALID,1.59666,
2007-12-31, 00:57:00,VALID,915.417,VALID,0,VALID,96.4868,VALID,-0.0849042,VALID,16.8996,VALID,146,VALID,1.4068,
2007-12-31, 00:58:00,VALID,915.411,VALID,0,VALID,96.4067,VALID,-0.101885,VALID,16.8807,VALID,146,VALID,1.40968,
2007-12-31, 00:59:00,VALID,915.396,VALID,0,VALID,96.3546,VALID,-0.118866,VALID,16.9039,VALID,149,VALID,1.76272,
2007-12-31, 01:00:00,VALID,915.369,VALID,0,VALID,96.0163,VALID,-0.101885,VALID,16.9257,VALID,153,VALID,1.42448,
2007-12-31, 01:01:00,VALID,915.368,VALID,0,VALID,95.7429,VALID,-0.135847,VALID,16.9525,VALID,147,VALID,1.28292,
2007-12-31, 01:02:00,VALID,915.34,VALID,0,VALID,95.6208,VALID,-0.118866,VALID,16.9653,VALID,149,VALID,1.50883,
2007-12-31, 01:03:00,VALID,915.319,VALID,0,VALID,95.4606,VALID,-0.0849042,VALID,16.9711,VALID,143,VALID,1.71018,
2007-12-31, 01:04:00,VALID,915.306,VALID,0,VALID,95.3169,VALID,-0.118866,VALID,17.0007,VALID,150,VALID,1.84466,
2007-12-31, 01:05:00,VALID,915.305,VALID,0,VALID,95.0486,VALID,-0.101885,VALID,17.0463,VALID,145,VALID,1.48251,
2007-12-31, 01:06:00,VALID,915.306,VALID,0,VALID,94.7333,VALID,-0.101885,VALID,17.085,VALID,145,VALID,1.54036,
2007-12-31, 01:07:00,VALID,915.291,VALID,0,VALID,94.2628,VALID,-0.101885,VALID,17.107,VALID,145,VALID,1.74115,
2007-12-31, 01:08:00,VALID,915.284,VALID,0,VALID,94.025,VALID,-0.101885,VALID,17.1466,VALID,145,VALID,1.63821,
2007-12-31, 01:09:00,VALID,915.276,VALID,0,VALID,93.8876,VALID,-0.101885,VALID,17.163,VALID,145,VALID,1.78486,
2007-12-31, 01:10:00,VALID,915.261,VALID,0,VALID,93.5367,VALID,-0.101885,VALID,17.2017,VALID,145,VALID,1.70064,
2007-12-31, 01:11:00,VALID,915.26,VALID,0,VALID,93.1895,VALID,-0.118866,VALID,17.2506,VALID,143,VALID,1.68072,
2007-12-31, 01:12:00,VALID,915.256,VALID,0,VALID,92.9047,VALID,-0.0849042,VALID,17.2495,VALID,141,VALID,1.8446,
2007-12-31, 01:13:00,VALID,915.228,VALID,0,VALID,92.6695,VALID,-0.0849042,VALID,17.2596,VALID,135,VALID,1.83711,
2007-12-31, 01:14:00,VALID,915.224,VALID,0,VALID,92.7127,VALID,-0.118866,VALID,17.2374,VALID,137,VALID,1.37691,
2007-12-31, 01:15:00,VALID,915.209,VALID,0,VALID,92.8615,VALID,-0.101885,VALID,17.1889,VALID,132,VALID,1.30007,
2007-12-31, 01:16:00,VALID,915.188,VALID,0,VALID,93.0687,VALID,-0.118866,VALID,17.1334,VALID,134,VALID,1.21608,
2007-12-31, 01:17:00,VALID,915.183,VALID,0,VALID,93.1845,VALID,-0.135847,VALID,17.088,VALID,129,VALID,1.08147,
2007-12-31, 01:18:00,VALID,915.177,VALID,0,VALID,93.2379,VALID,-0.101885,VALID,17.0366,VALID,117,VALID,1.04045,
2007-12-31, 01:19:00,VALID,915.172,VALID,0,VALID,93.3459,VALID,-0.101885,VALID,16.9646,VALID,121,VALID,1.30878,
2007-12-31, 01:20:00,VALID,915.145,VALID,0,VALID,93.5469,VALID,-0.0849042,VALID,16.9063,VALID,121,VALID,1.46475,
2007-12-31, 01:21:00,VALID,915.141,VALID,0,VALID,93.8177,VALID,-0.0849042,VALID,16.8514,VALID,121,VALID,1.63379,
2007-12-31, 01:22:00,VALID,915.14,VALID,0,VALID,94.0301,VALID,-0.0679233,VALID,16.7893,VALID,117,VALID,1.65253,
2007-12-31, 01:23:00,VALID,915.136,VALID,0,VALID,94.2742,VALID,-0.101885,VALID,16.734,VALID,117,VALID,1.68099,
2007-12-31, 01:24:00,VALID,915.144,VALID,0,VALID,94.5743,VALID,-0.101885,VALID,16.6956,VALID,118,VALID,1.63477,
2007-12-31, 01:25:00,VALID,915.135,VALID,0,VALID,94.91,VALID,-0.101885,VALID,16.6636,VALID,130,VALID,1.61309,
2007-12-31, 01:26:00,VALID,915.133,VALID,0,VALID,95.1211,VALID,-0.118866,VALID,16.6342,VALID,125,VALID,1.64922,
2007-12-31, 01:27:00,VALID,915.119,VALID,0,VALID,95.3271,VALID,-0.118866,VALID,16.6117,VALID,136,VALID,1.77899,
2007-12-31, 01:28:00,VALID,915.095,VALID,0,VALID,95.4594,VALID,-0.0849042,VALID,16.5882,VALID,137,VALID,2.0298,
2007-12-31, 01:29:00,VALID,915.084,VALID,0,VALID,95.3856,VALID,-0.118866,VALID,16.5827,VALID,142,VALID,1.9068,
2007-12-31, 01:30:00,VALID,915.097,VALID,0,VALID,95.2381,VALID,-0.118866,VALID,16.5823,VALID,147,VALID,1.56797,
2007-12-31, 01:31:00,VALID,915.092,VALID,0,VALID,94.835,VALID,-0.118866,VALID,16.5987,VALID,148,VALID,1.74507,
2007-12-31, 01:32:00,VALID,915.095,VALID,0,VALID,94.4472,VALID,-0.118866,VALID,16.6212,VALID,144,VALID,1.50911,
2007-12-31, 01:33:00,VALID,915.094,VALID,0,VALID,94.0898,VALID,-0.118866,VALID,16.6571,VALID,143,VALID,1.25018,
2007-12-31, 01:34:00,VALID,915.1,VALID,0,VALID,93.6702,VALID,-0.101885,VALID,16.6532,VALID,137,VALID,1.51972,
2007-12-31, 01:35:00,VALID,915.096,VALID,0,VALID,93.1806,VALID,-0.0849042,VALID,16.6793,VALID,137,VALID,1.38969,
2007-12-31, 01:36:00,VALID,915.102,VALID,0,VALID,92.8627,VALID,-0.101885,VALID,16.6958,VALID,126,VALID,1.5061,
2007-12-31, 01:37:00,VALID,915.104,VALID,0,VALID,92.5906,VALID,-0.101885,VALID,16.7118,VALID,127,VALID,1.43821,
2007-12-31, 01:38:00,VALID,915.101,VALID,0,VALID,92.2689,VALID,-0.101885,VALID,16.7213,VALID,121,VALID,1.45015,
2007-12-31, 01:39:00,VALID,915.103,VALID,0,VALID,91.6344,VALID,-0.0849042,VALID,16.7865,VALID,117,VALID,1.44549,
2007-12-31, 01:40:00,VALID,915.09,VALID,0,VALID,91.0914,VALID,-0.101885,VALID,16.838,VALID,122,VALID,1.38372,
2007-12-31, 01:41:00,VALID,915.087,VALID,0,VALID,90.5204,VALID,-0.118866,VALID,16.8736,VALID,122,VALID,1.55096,
2007-12-31, 01:42:00,VALID,915.095,VALID,0,VALID,89.9558,VALID,0,VALID,16.9246,VALID,126,VALID,1.44931,
2007-12-31, 01:43:00,VALID,915.095,VALID,0,VALID,89.4917,VALID,0.0339617,VALID,16.986,VALID,130,VALID,1.38567,
2007-12-31, 01:44:00,VALID,915.066,VALID,0,VALID,89.259,VALID,0,VALID,17.0282,VALID,128,VALID,1.40053,
2007-12-31, 01:45:00,VALID,915.045,VALID,0,VALID,88.7262,VALID,0.0339617,VALID,17.0312,VALID,121,VALID,1.74089,
2007-12-31, 01:46:00,VALID,915.029,VALID,0,VALID,88.388,VALID,0.0509425,VALID,17.0634,VALID,115,VALID,1.74934,
2007-12-31, 01:47:00,VALID,914.993,VALID,0,VALID,87.8653,VALID,0.0679233,VALID,17.0926,VALID,117,VALID,1.73438,
2007-12-31, 01:48:00,VALID,914.98,VALID,0,VALID,87.2817,VALID,0,VALID,17.1351,VALID,122,VALID,1.42035,
2007-12-31, 01:49:00,VALID,914.978,VALID,0,VALID,86.8252,VALID,0,VALID,17.1838,VALID,125,VALID,1.12891,
2007-12-31, 01:50:00,VALID,914.972,VALID,0,VALID,86.8709,VALID,0,VALID,17.193,VALID,115,VALID,0.942508,
2007-12-31, 01:51:00,VALID,914.956,VALID,0,VALID,87.3936,VALID,0,VALID,17.1678,VALID,109,VALID,0.881168,
2007-12-31, 01:52:00,VALID,914.946,VALID,0,VALID,88.1057,VALID,0,VALID,17.0733,VALID,106,VALID,0.651278,
2007-12-31, 01:53:00,VALID,914.934,VALID,0,VALID,88.847,VALID,0,VALID,16.9538,VALID,114,VALID,0.746982,
2007-12-31, 01:54:00,VALID,914.91,VALID,0,VALID,89.4739,VALID,0,VALID,16.8466,VALID,120,VALID,0.986919,
2007-12-31, 01:55:00,VALID,914.898,VALID,0,VALID,89.8948,VALID,0,VALID,16.769,VALID,122,VALID,0.87282,
2007-12-31, 01:56:00,VALID,914.898,VALID,0,VALID,90.3322,VALID,0,VALID,16.6973,VALID,122,VALID,0.828683,
2007-12-31, 01:57:00,VALID,914.886,VALID,0,VALID,90.5866,VALID,0.0169808,VALID,16.6202,VALID,123,VALID,1.03144,
2007-12-31, 01:58:00,VALID,914.88,VALID,0,VALID,90.776,VALID,0,VALID,16.5642,VALID,121,VALID,1.15199,
2007-12-31, 01:59:00,VALID,914.864,VALID,0,VALID,90.818,VALID,0,VALID,16.5644,VALID,128,VALID,1.33807,
2007-12-31, 02:00:00,VALID,914.835,VALID,0,VALID,90.9541,VALID,-0.0169808,VALID,16.5385,VALID,139,VALID,1.47159,
2007-12-31, 02:01:00,VALID,914.817,VALID,0,VALID,91.1829,VALID,0.0169808,VALID,16.4996,VALID,138,VALID,1.4215,
2007-12-31, 02:02:00,VALID,914.807,VALID,0,VALID,91.2885,VALID,0.0339617,VALID,16.4901,VALID,137,VALID,1.45403,
2007-12-31, 02:03:00,VALID,914.782,VALID,0,VALID,91.1906,VALID,0.0169808,VALID,16.4935,VALID,139,VALID,1.24063,
2007-12-31, 02:04:00,VALID,914.757,VALID,0,VALID,91.0977,VALID,0,VALID,16.5,VALID,140,VALID,1.29778,
2007-12-31, 02:05:00,VALID,914.755,VALID,0,VALID,91.1715,VALID,0.0169808,VALID,16.5061,VALID,139,VALID,1.16927,
2007-12-31, 02:06:00,VALID,914.725,VALID,0,VALID,91.2796,VALID,0,VALID,16.4871,VALID,126,VALID,1.03924,
2007-12-31, 02:07:00,VALID,914.712,VALID,0,VALID,91.5848,VALID,0,VALID,16.4579,VALID,116,VALID,1.15714,
2007-12-31, 02:08:00,VALID,914.694,VALID,0,VALID,92.0273,VALID,0.0169808,VALID,16.3511,VALID,128,VALID,1.40313,
2007-12-31, 02:09:00,VALID,914.688,VALID,0,VALID,92.1964,VALID,0.0169808,VALID,16.3023,VALID,128,VALID,1.04883,
2007-12-31, 02:10:00,VALID,914.665,VALID,0,VALID,92.213,VALID,0.0169808,VALID,16.2792,VALID,128,VALID,0.94215,
2007-12-31, 02:11:00,VALID,914.649,VALID,0,VALID,92.2358,VALID,-0.0679233,VALID,16.2349,VALID,129,VALID,0.946456,
2007-12-31, 02:12:00,VALID,914.644,VALID,0,VALID,92.1176,VALID,-0.0169808,VALID,16.1952,VALID,128,VALID,1.23073,
2007-12-31, 02:13:00,VALID,914.648,VALID,0,VALID,92.2981,VALID,0,VALID,16.1721,VALID,96,VALID,0.645712,
2007-12-31, 02:14:00,VALID,914.655,VALID,0,VALID,92.7305,VALID,0.0169808,VALID,16.0524,VALID,96,VALID,0.835156,
2007-12-31, 02:15:00,VALID,914.655,VALID,0,VALID,93.201,VALID,0,VALID,15.9554,VALID,120,VALID,0.845796,
2007-12-31, 02:16:00,VALID,914.646,VALID,0,VALID,93.379,VALID,-0.0169808,VALID,15.9193,VALID,137,VALID,0.936955,
2007-12-31, 02:17:00,VALID,914.636,VALID,0,VALID,93.1514,VALID,0,VALID,15.9714,VALID,141,VALID,0.60992,
2007-12-31, 02:18:00,VALID,914.635,VALID,0,VALID,92.925,VALID,0.0339617,VALID,16.0228,VALID,107,VALID,0.904492,
2007-12-31, 02:19:00,VALID,914.625,VALID,0,VALID,92.6529,VALID,0.0169808,VALID,16.0455,VALID,122,VALID,1.15799,
2007-12-31, 02:20:00,VALID,914.627,VALID,0,VALID,92.5245,VALID,0.0339617,VALID,16.0781,VALID,114,VALID,1.17678,
2007-12-31, 02:21:00,VALID,914.643,VALID,0,VALID,92.513,VALID,0.0339617,VALID,16.0651,VALID,122,VALID,1.18023,
2007-12-31, 02:22:00,VALID,914.64,VALID,0,VALID,92.6033,VALID,0.0169808,VALID,16.0489,VALID,121,VALID,1.11719,
2007-12-31, 02:23:00,VALID,914.66,VALID,0,VALID,92.6758,VALID,0.0169808,VALID,16.023,VALID,126,VALID,1.35052,
2007-12-31, 02:24:00,VALID,914.658,VALID,0,VALID,92.6008,VALID,0.0339617,VALID,16.0262,VALID,113,VALID,1.13032,
2007-12-31, 02:25:00,VALID,914.659,VALID,0,VALID,92.6249,VALID,0.0339617,VALID,15.9969,VALID,107,VALID,0.945703,
2007-12-31, 02:26:00,VALID,914.645,VALID,0,VALID,92.7814,VALID,0.0169808,VALID,15.942,VALID,109,VALID,0.821289,
2007-12-31, 02:27:00,VALID,914.636,VALID,0,VALID,92.8666,VALID,-0.0509425,VALID,15.9199,VALID,111,VALID,1.04651,
2007-12-31, 02:28:00,VALID,914.616,VALID,0,VALID,92.6389,VALID,-0.101885,VALID,15.9306,VALID,116,VALID,1.14901,
2007-12-31, 02:29:00,VALID,914.608,VALID,0,VALID,92.3261,VALID,-0.101885,VALID,15.947,VALID,120,VALID,1.38672,
2007-12-31, 02:30:00,VALID,914.586,VALID,0,VALID,92.0171,VALID,-0.0849042,VALID,15.9797,VALID,112,VALID,1.2048,
2007-12-31, 02:31:00,VALID,914.585,VALID,0,VALID,91.5911,VALID,-0.0849042,VALID,15.9888,VALID,117,VALID,1.30687,
2007-12-31, 02:32:00,VALID,914.568,VALID,0,VALID,90.8727,VALID,-0.101885,VALID,16.0242,VALID,117,VALID,1.31803,
2007-12-31, 02:33:00,VALID,914.564,VALID,0,VALID,90.6336,VALID,-0.101885,VALID,16.0694,VALID,95,VALID,0.93378,
2007-12-31, 02:34:00,VALID,914.569,VALID,0,VALID,90.9998,VALID,-0.0849042,VALID,16.008,VALID,83,VALID,0.761806,
2007-12-31, 02:35:00,VALID,914.567,VALID,0,VALID,91.2707,VALID,-0.101885,VALID,15.8855,VALID,74,VALID,0.962536,
2007-12-31, 02:36:00,VALID,914.567,VALID,0,VALID,91.1499,VALID,-0.101885,VALID,15.8656,VALID,77,VALID,0.935023,
2007-12-31, 02:37:00,VALID,914.566,VALID,0,VALID,90.743,VALID,-0.101885,VALID,15.8853,VALID,95,VALID,1.10036,
2007-12-31, 02:38:00,VALID,914.572,VALID,0,VALID,90.4772,VALID,-0.101885,VALID,15.9404,VALID,97,VALID,0.996911,
2007-12-31, 02:39:00,VALID,914.572,VALID,0,VALID,89.9673,VALID,-0.0849042,VALID,15.9786,VALID,101,VALID,0.99314,
2007-12-31, 02:40:00,VALID,914.556,VALID,0,VALID,89.3722,VALID,-0.101885,VALID,16.0793,VALID,105,VALID,1.02598,
2007-12-31, 02:41:00,VALID,914.554,VALID,0,VALID,89.2743,VALID,-0.118866,VALID,16.1184,VALID,89,VALID,0.719308,
2007-12-31, 02:42:00,VALID,914.564,VALID,0,VALID,89.184,VALID,-0.0339617,VALID,16.0755,VALID,85,VALID,0.567187,
2007-12-31, 02:43:00,VALID,914.574,VALID,0,VALID,89.376,VALID,0,VALID,16.0455,VALID,88,VALID,0.53559,
2007-12-31, 02:44:00,VALID,914.587,VALID,0,VALID,89.4637,VALID,0.0169808,VALID,16.02,VALID,88,VALID,0.842297,
2007-12-31, 02:45:00,VALID,914.583,VALID,0,VALID,89.7664,VALID,-0.0169808,VALID,16.004,VALID,88,VALID,0.866122,
2007-12-31, 02:46:00,VALID,914.576,VALID,0,VALID,90.1758,VALID,0.0339617,VALID,15.939,VALID,100,VALID,0.902148,
2007-12-31, 02:47:00,VALID,914.59,VALID,0,VALID,90.5611,VALID,0,VALID,15.8772,VALID,105,VALID,0.851935,
2007-12-31, 02:48:00,VALID,914.621,VALID,0,VALID,90.7531,VALID,0.0339617,VALID,15.8739,VALID,89,VALID,0.584302,
2007-12-31, 02:49:00,VALID,914.632,VALID,0,VALID,90.6095,VALID,0,VALID,15.8027,VALID,58,VALID,0.812318,
2007-12-31, 02:50:00,VALID,914.646,VALID,0,VALID,89.8732,VALID,0.0169808,VALID,15.9163,VALID,70,VALID,0.683117,
2007-12-31, 02:51:00,VALID,914.654,VALID,0,VALID,88.7656,VALID,-0.0169808,VALID,16.0751,VALID,80,VALID,0.627663,
2007-12-31, 02:52:00,VALID,914.648,VALID,0,VALID,87.9963,VALID,0,VALID,16.2272,VALID,78,VALID,0.640262,
2007-12-31, 02:53:00,VALID,914.637,VALID,0,VALID,86.7565,VALID,0.0169808,VALID,16.295,VALID,84,VALID,0.929492,
2007-12-31, 02:54:00,VALID,914.593,VALID,0,VALID,84.4256,VALID,0.0169808,VALID,16.5186,VALID,110,VALID,1.0519,
2007-12-31, 02:55:00,VALID,914.568,VALID,0,VALID,82.5398,VALID,0.0339617,VALID,16.8075,VALID,115,VALID,1.08194,
2007-12-31, 02:56:00,VALID,914.555,VALID,0,VALID,82.2003,VALID,0.0169808,VALID,17.0307,VALID,106,VALID,0.588281,
2007-12-31, 02:57:00,VALID,914.558,VALID,0,VALID,83.1591,VALID,-0.0339617,VALID,17.0316,VALID,95,VALID,0.630526,
2007-12-31, 02:58:00,VALID,914.513,VALID,0,VALID,83.051,VALID,-0.0849042,VALID,16.9447,VALID,118,VALID,0.957639,
2007-12-31, 02:59:00,VALID,914.476,VALID,0,VALID,83.2952,VALID,-0.0509425,VALID,16.9575,VALID,121,VALID,0.833651,
2007-12-31, 03:00:00,VALID,914.467,VALID,0,VALID,83.2685,VALID,-0.0169808,VALID,16.9439,VALID,128,VALID,1.04855,
2007-12-31, 03:01:00,VALID,914.461,VALID,0,VALID,82.8539,VALID,-0.0509425,VALID,16.9605,VALID,128,VALID,0.782617,
2007-12-31, 03:02:00,VALID,914.486,VALID,0,VALID,83.1401,VALID,-0.0679233,VALID,16.9707,VALID,128,VALID,0.721839,
2007-12-31, 03:03:00,VALID,914.493,VALID,0,VALID,83.1985,VALID,-0.0679233,VALID,16.9413,VALID,128,VALID,0.663707,
2007-12-31, 03:04:00,VALID,914.464,VALID,0,VALID,83.051,VALID,-0.0849042,VALID,16.9153,VALID,128,VALID,0.839063,
2007-12-31, 03:05:00,VALID,914.461,VALID,0,VALID,82.4114,VALID,-0.0509425,VALID,16.9186,VALID,127,VALID,1.06907,
2007-12-31, 03:06:00,VALID,914.454,VALID,0,VALID,81.6357,VALID,-0.0509425,VALID,16.9704,VALID,120,VALID,0.958452,
2007-12-31, 03:07:00,VALID,914.446,VALID,0,VALID,81.6485,VALID,-0.0169808,VALID,17.0223,VALID,117,VALID,1.25273,
2007-12-31, 03:08:00,VALID,914.439,VALID,0,VALID,82.0859,VALID,-0.0509425,VALID,16.964,VALID,117,VALID,1.24752,
2007-12-31, 03:09:00,VALID,914.43,VALID,0,VALID,82.8539,VALID,-0.0679233,VALID,16.9024,VALID,139,VALID,0.949963,
2007-12-31, 03:10:00,VALID,914.444,VALID,0,VALID,84.7397,VALID,-0.101885,VALID,16.8084,VALID,138,VALID,0.669922,
2007-12-31, 03:11:00,VALID,914.44,VALID,0,VALID,85.5981,VALID,-0.0679233,VALID,16.5979,VALID,144,VALID,1.05748,
2007-12-31, 03:12:00,VALID,914.463,VALID,0,VALID,86.0762,VALID,-0.0849042,VALID,16.4064,VALID,137,VALID,1.11022,
2007-12-31, 03:13:00,VALID,914.457,VALID,0,VALID,85.6515,VALID,-0.0509425,VALID,16.3351,VALID,137,VALID,1.30305,
2007-12-31, 03:14:00,VALID,914.455,VALID,0,VALID,84.9228,VALID,-0.101885,VALID,16.3708,VALID,148,VALID,1.40518,
2007-12-31, 03:15:00,VALID,914.46,VALID,0,VALID,84.0136,VALID,-0.0849042,VALID,16.4778,VALID,152,VALID,1.56752,
2007-12-31, 03:16:00,VALID,914.443,VALID,0,VALID,83.341,VALID,-0.0339617,VALID,16.6301,VALID,151,VALID,1.54668,
2007-12-31, 03:17:00,VALID,914.452,VALID,0,VALID,83.1871,VALID,-0.0679233,VALID,16.7468,VALID,148,VALID,1.77455,
2007-12-31, 03:18:00,VALID,914.45,VALID,0,VALID,83.3715,VALID,-0.0509425,VALID,16.7989,VALID,151,VALID,1.81816,
2007-12-31, 03:19:00,VALID,914.443,VALID,0,VALID,83.8293,VALID,-0.101885,VALID,16.8086,VALID,148,VALID,1.84055,
2007-12-31, 03:20:00,VALID,914.456,VALID,0,VALID,83.7453,VALID,-0.101885,VALID,16.7922,VALID,142,VALID,1.75725,
2007-12-31, 03:21:00,VALID,914.491,VALID,0,VALID,83.5342,VALID,-0.0849042,VALID,16.8414,VALID,145,VALID,1.56159,
2007-12-31, 03:22:00,VALID,914.477,VALID,0,VALID,83.9869,VALID,-0.101885,VALID,16.8373,VALID,139,VALID,1.25911,
2007-12-31, 03:23:00,VALID,914.481,VALID,0,VALID,84.3417,VALID,-0.0849042,VALID,16.8116,VALID,139,VALID,1.47621,
2007-12-31, 03:24:00,VALID,914.464,VALID,0,VALID,84.3277,VALID,-0.0849042,VALID,16.7857,VALID,140,VALID,1.54371,
2007-12-31, 03:25:00,VALID,914.438,VALID,0,VALID,84.4333,VALID,-0.0679233,VALID,16.7533,VALID,142,VALID,1.61471,
2007-12-31, 03:26:00,VALID,914.432,VALID,0,VALID,84.3519,VALID,-0.0509425,VALID,16.7338,VALID,141,VALID,1.49447,
2007-12-31, 03:27:00,VALID,914.414,VALID,0,VALID,84.2552,VALID,-0.0169808,VALID,16.6941,VALID,146,VALID,1.50877,
2007-12-31, 03:28:00,VALID,914.409,VALID,0,VALID,83.9895,VALID,0.0339617,VALID,16.6807,VALID,149,VALID,1.48344,
2007-12-31, 03:29:00,VALID,914.409,VALID,0,VALID,83.5813,VALID,0.0679233,VALID,16.7068,VALID,138,VALID,1.53776,
2007-12-31, 03:30:00,VALID,914.402,VALID,0,VALID,83.4274,VALID,0,VALID,16.7328,VALID,142,VALID,1.56454,
2007-12-31, 03:31:00,VALID,914.417,VALID,0,VALID,83.4084,VALID,0.0509425,VALID,16.7328,VALID,145,VALID,1.3869,
2007-12-31, 03:32:00,VALID,914.417,VALID,0,VALID,83.3982,VALID,0.0339617,VALID,16.739,VALID,144,VALID,1.0496,